Miscellaneous Local Product
Issued by NWS Hastings, NE

Home | Current Version | Previous Version | Graphics & Text | Print | Product List | Glossary On
Versions: 1 2 3 4 5 6 7 8 9 10 11 12 13 14 15 16 17 18 19 20 21 22 23 24 25 26 27 28 29 30 31 32 33 34 35 36 37 38 39 40 41 42 43 44 45 46 47 48 49 50
000
AXUS43 KGID 191802
MISGRI

GID CWA HOURLY WEATHER ROUNDUP
NATIONAL WEATHER SERVICE HASTINGS NE
1200 PM CST THU JAN 19 2017

NOTE: "FAIR" INDICATES FEW OR NO CLOUDS BELOW 12,000 FEET WITH NO
SIGNIFICANT WEATHER AND/OR OBSTRUCTIONS TO VISIBILITY.

...SOUTH CENTRAL NEBRASKA...

CITY           SKY/WX    TMP DP  RH WIND       PRES   REMARKS
GRAND ISLAND   CLOUDY    40  40 100 SE7       29.66F FOG
HASTINGS       FOG       41  40  96 SE9       29.67F VSB 1/2
KEARNEY        CLOUDY    41  39  93 S8        29.65S
ORD            CLOUDY    39  38  96 SE7       29.62F FOG     WCI  34
YORK           FOG       39  39 100 SE12      29.69F VSB 3/4 WCI  32
AURORA         FOG       39  39 100 SE9       29.67F VSB 1/2 WCI  33
LEXINGTON      FOG       40  39  95 CALM      29.62F VSB 1/2
HOLDREGE       CLOUDY    42  41  97 S7        29.63F FOG
HEBRON         CLOUDY    42  42  99 SE7       29.69F FOG

...NEBRASKA PANHANDLE...

CITY           SKY/WX    TMP DP  RH WIND       PRES   REMARKS
CHADRON        SUNNY     38  23  55 SW10      29.54F WCI  31
ALLIANCE       SUNNY     46  26  45 W7        29.55F
SCOTTSBLUFF    SUNNY     43  27  53 CALM      29.57F
SIDNEY         SUNNY     46  27  47 W5        29.58F

...WESTERN AND NORTH CENTRAL NEBRASKA...

CITY           SKY/WX    TMP DP  RH WIND       PRES   REMARKS
VALENTINE      SUNNY     50  21  32 SW14      29.54F
AINSWORTH      CLOUDY    36  36 100 S14       29.57F FOG     WCI  27
ONEILL         CLOUDY    42  42  99 S15       29.61F
BROKEN BOW     CLOUDY    40  40 100 S8        29.61F FOG     WCI  34
IMPERIAL       SUNNY     35  28  75 SE6       29.62F WCI  30
NORTH PLATTE   FOG       35  34  96 W7        29.63F VSB 1/2 WCI  29
MCCOOK         CLOUDY    38  38 100 CALM      29.63F FOG

...EASTERN NEBRASKA...

CITY           SKY/WX    TMP DP  RH WIND       PRES   REMARKS
NORFOLK        CLOUDY    38  37  97 SE10      29.67F FOG     WCI  31
SO SIOUX CITY  FOG       38  37  97 S10       29.74F VSB 1/2 WCI  31
TEKAMAH        CLOUDY    37  35  92 SE7       29.74F FOG     WCI  32
COLUMBUS       CLOUDY    37  37 100 E7        29.71F VSB 1   WCI  32
ALBION         FOG       37  37 100 SE7       29.67F VSB 1/4 WCI  32
OMAHA EPPLEY   CLOUDY    41  38  89 SE10      29.76F FOG
MILLARD        CLOUDY    42  40  96 SE8       29.75F FOG
LINCOLN        CLOUDY    42  41  96 SE8       29.73F FOG
NEBRASKA CITY  FOG       41  41 100 SE5       29.75F VSB<1/4
BEATRICE       CLOUDY    43  42  96 SE7       29.72F FOG
FALLS CITY     FOG       44  43  96 SE6       29.75F VSB 1/2

...NORTHERN KANSAS...

CITY           SKY/WX    TMP DP  RH WIND       PRES   REMARKS
GOODLAND       FOG       32  32 100 S6        29.61F VSB 1/4 WCI  26
HILL CITY      CLOUDY    45  42  89 S9        29.63F
NORTON         CLOUDY    41  39  93 SE5       29.62F
PHILLIPSBURG   CLOUDY    45  45 100 SE7       29.64F FOG
SMITH CENTER   CLOUDY    41  41 100 SE6       29.65F FOG
HAYS           CLOUDY    45  42  89 S13       29.63F
RUSSELL        CLOUDY    46  43  89 S13       29.63F
CONCORDIA      CLOUDY    45  44  97 SE9       29.68F
SALINA         CLOUDY    46  45  96 SE12      29.69F FOG
TOPEKA         CLOUDY    47  44  90 SE6       29.75F FOG



USA.gov is the U.S. government's official web portal to all federal, state and local government web resources and services.